Find Intelsat IS-20

NORAD ID: 38740 Int'l Des: 2012-043 Owner: INTELU Country: US operational
HEOCIRCULARGSOGEO

現在のビュー

3D地球を読み込み中...

Intelsat IS-20について

説明を読み込み中...

次回通過

Passes for default location (London). Set your location on the main map for personalized predictions.

高度履歴

Loading altitude history...

軌道要素

1 38740U 12043A 26151.08150321 -.00000012 00000-0 00000+0 0 9990
2 38740 0.0095 91.9625 0001510 90.6607 163.8124 1.00271471 50570
Epoch: May 31, 2026 • Age: 12 hours

現在のステータス

高度 35780.0 km
速度 3.08 km/s
衛星直下点 0.00°N, 68.5°E
打ち上げ日 Aug 2, 2012
運用期間 13.8 years
タイプ communications

技術仕様

分類 Payload
質量 6094.00 kg
乾燥質量 2989.00 kg
総質量 6094.00 kg
長さ 8.50 m
直径 3.20 m
スパン 32.40 m
形状 Box + 2 Pan
製造者 LOR
バスタイプ SSL-1300-O
フェーズステータス In Orbit
所有者/国 INTELU/US

Most Searched